Location: Gaast
(52.9002°N, 5.8891°E)
Time: 09:58:24
(UTC+00:00)

ATLAS 2AS CENTAUR R/B - Pass Details

Date: 18 November 2025
Orbit: 1047 x 1163 km, 63.7° (Epoch: 11 December)

Event Time Altitude Azimuth Distance (km) Brightness Sun altitude
Rises 17:29:27 0° 308° (NW) 3,866 6.3 -16.5°
Reaches altitude 10° 17:32:13 10° 313° (NW) 2,896 5.5 -16.9°
Maximum altitude 17:38:52 52° 30° (NNE) 1,286 2.9 -17.9°
Enters shadow 17:42:14 29° 92° (E) 1,837 3.4 -18.4°
